Weather History for KEKQ - December, 2013

Change the Weather History Date:

Tuesday, December 31, 2013

  Actual Average Record
Temperature  
Mean Temperature 30 °F -  
Max Temperature 39 °F 46 °F 71 °F (1974)
Min Temperature 20 °F 28 °F 1 °F (1983)
Degree Days  
Heating Degree Days 36    
Moisture  
Dew Point 23 °F    
Average Humidity 79    
Maximum Humidity 96    
Minimum Humidity 53    
Precipitation  
Precipitation 0.00 in - - ()
Sea Level Pressure  
Sea Level Pressure 30.41 in    
Wind  
Wind Speed 5 mph (WSW)    
Max Wind Speed 12 mph    
Max Gust Speed 20 mph    
Visibility 9 miles    
Events      
Averages and records for this station are not official NWS values.
T = Trace of Precipitation, MM = Missing Value Source: NWS Daily Summary

Daily Weather History Graph

Daily Weather History Graph

Search for Another Location

Airport or City:

Trip Planner

Search our weather history database for the weather conditions in past years. The results will help you decide how hot, cold, wet, or windy it might be!

Date:

Astronomy

Dec. 31, 2013 Rise Set
Actual Time 6:52 AM CST 4:33 PM CST
Civil Twilight 6:23 AM CST 5:02 PM CST
Nautical Twilight 5:50 AM CST 5:34 PM CST
Astronomical Twilight 5:19 AM CST 6:05 PM CST
Moon 5:45 AM CST (12/31) 4:07 PM CST (12/31)
Length of Visible Light 10h 38m
Length of Day
9h 40m
Waning Crescent, 1% of the Moon is Illuminated
Dec 31
Waning Crescent
Jan 1
New
Jan 7
First Quarter
Jan 15
Full
Jan 23
Last Quarter

Hourly Weather History & Observations

Time (CST) Temp. Windchill Dew Point Humidity Pressure Visibility Wind Dir Wind Speed Gust Speed Precip Events Conditions
12:56 AM 29.1 °F 23.0 °F 26.1 °F 88% 30.31 in 7.0 mi WSW 5.8 mph - N/A   Overcast
1:56 AM 29.1 °F 23.0 °F 26.1 °F 88% 30.33 in 6.0 mi WSW 5.8 mph - N/A   Overcast
2:56 AM 28.0 °F 21.7 °F 25.2 °F 89% 30.33 in 7.0 mi SW 5.8 mph - N/A   Overcast
3:56 AM 27.1 °F 19.7 °F 24.1 °F 88% 30.35 in 6.0 mi WSW 6.9 mph - N/A   Partly Cloudy
4:56 AM 24.1 °F - 23.0 °F 96% 30.34 in 5.0 mi Calm Calm - N/A   Clear
5:56 AM 25.2 °F 15.7 °F 23.0 °F 91% 30.38 in 7.0 mi WSW 9.2 mph - N/A   Clear
6:56 AM 27.1 °F 16.9 °F 24.1 °F 88% 30.41 in 9.0 mi WSW 11.5 mph 19.6 mph N/A   Mostly Cloudy
7:56 AM 28.0 °F 20.0 °F 23.0 °F 81% 30.45 in 10.0 mi West 8.1 mph - N/A   Clear
8:56 AM 30.0 °F 20.5 °F 22.1 °F 72% 30.49 in 10.0 mi WNW 11.5 mph - N/A   Clear
9:56 AM 32.0 °F 26.4 °F 21.0 °F 64% 30.51 in 10.0 mi WSW 5.8 mph - N/A   Clear
10:56 AM 34.9 °F 32.0 °F 22.1 °F 60% 30.47 in 10.0 mi Variable 3.5 mph - N/A   Clear
11:56 AM 36.9 °F 33.1 °F 24.1 °F 60% 30.46 in 10.0 mi Variable 4.6 mph - N/A   Clear
12:56 PM 37.9 °F 32.7 °F 24.1 °F 57% 30.43 in 10.0 mi West 6.9 mph - N/A   Clear
1:56 PM 37.9 °F 35.5 °F 23.0 °F 55% 30.41 in 10.0 mi East 3.5 mph - N/A   Clear
2:56 PM 39.9 °F 35.1 °F 24.1 °F 53% 30.42 in 10.0 mi North 6.9 mph - N/A   Clear
3:56 PM 37.9 °F - 24.1 °F 57% 30.43 in 10.0 mi Calm Calm - N/A   Clear
4:56 PM 29.1 °F - 24.1 °F 81% 30.44 in 10.0 mi Calm Calm - N/A   Clear
5:56 PM 27.1 °F - 22.1 °F 81% 30.42 in 10.0 mi Calm Calm - N/A   Clear
6:56 PM 25.2 °F - 22.1 °F 88% 30.42 in 10.0 mi Calm Calm - N/A   Clear
7:56 PM 27.1 °F 20.7 °F 23.0 °F 84% 30.42 in 10.0 mi SSW 5.8 mph - N/A   Clear
8:56 PM 23.0 °F - 20.1 °F 89% 30.41 in 10.0 mi Calm Calm - N/A   Clear
9:56 PM 22.1 °F - 20.1 °F 92% 30.39 in 10.0 mi Calm Calm - N/A   Clear
10:56 PM 20.1 °F - 18.1 °F 92% 30.38 in 10.0 mi Calm Calm - N/A   Clear
11:56 PM 21.0 °F - 19.0 °F 92% 30.39 in 10.0 mi Calm Calm - N/A   Clear